GW4147 Weather Reports


Display with metric or nautical units.
time (UTC)temp
F
wind
direction
speed
MPH
gust
MPH
rain 1hr
in
rain 24hr
in
rain mn
in
humidity
%
barometer
mb
20260505041300 74 190 10.0 13.0 0.00 0.00 0.00 70 1006.8
20260505040758 74 145 5.0 11.0 0.00 0.00 0.00 70 1006.7
20260505040255 74 231 2.0 13.0 0.00 0.00 0.00 70 1006.7
20260505035752 74 135 3.0 13.0 0.00 0.00 0.00 69 1006.8
20260505035247 74 179 6.0 16.0 0.00 0.00 0.00 69 1006.7
20260505034745 74 176 4.0 13.0 0.00 0.00 0.00 69 1006.6
20260505034242 74 144 3.0 11.0 0.00 0.00 0.00 69 1006.8
20260505033738 74 169 6.0 21.0 0.00 0.00 0.00 69 1006.6
20260505033236 74 157 6.0 13.0 0.00 0.00 0.00 69 1006.4
20260505032734 74 152 8.0 12.0 0.00 0.00 0.00 69 1006.4
20260505032229 74 159 5.0 12.0 0.00 0.00 0.00 69 1006.7
20260505031727 74 180 8.0 12.0 0.00 0.00 0.00 68 1006.9
20260505031223 74 168 5.0 13.0 0.00 0.00 0.00 68 1007.0
20260505030720 74 169 4.0 13.0 0.00 0.00 0.00 68 1006.9
20260505030216 74 144 2.0 10.0 0.00 0.00 0.00 68 1006.9
20260505025712 74 177 2.0 11.0 0.00 0.00 0.00 68 1006.7
20260505025211 74 215 8.0 12.0 0.00 0.00 0.00 68 1006.7
20260505024709 74 152 11.0 12.0 0.00 0.00 0.00 68 1006.9
20260505024205 74 168 5.0 8.0 0.00 0.00 0.00 68 1006.9
20260505023703 74 119 3.0 15.0 0.00 0.00 0.00 68 1006.9
20260505023155 74 196 8.0 11.0 0.00 0.00 0.00 68 1006.8
20260505022652 74 180 5.0 9.0 0.00 0.00 0.00 68 1007.1
20260505022149 74 181 5.0 9.0 0.00 0.00 0.00 68 1007.1
20260505021645 75 203 6.0 8.0 0.00 0.00 0.00 67 1006.9
20260505021142 75 150 5.0 9.0 0.00 0.00 0.00 67 1007.0
20260505020638 75 155 5.0 11.0 0.00 0.00 0.00 67 1007.0
20260505020134 75 230 2.0 8.0 0.00 0.00 0.00 66 1006.9
20260505015632 75 186 7.0 14.0 0.00 0.00 0.00 66 1006.9
20260505015128 75 182 7.0 9.0 0.00 0.00 0.00 65 1006.8
20260505014625 75 135 4.0 10.0 0.00 0.00 0.00 65 1007.0
20260505014122 75 193 7.0 13.0 0.00 0.00 0.00 65 1006.8
20260505013619 75 184 13.0 13.0 0.00 0.00 0.00 65 1006.7
20260505013116 75 154 3.0 10.0 0.00 0.00 0.00 65 1006.7
20260505012614 75 189 7.0 11.0 0.00 0.00 0.00 65 1006.8
20260505012105 75 220 6.0 10.0 0.00 0.00 0.00 64 1006.9
20260505011601 75 176 5.0 15.0 0.00 0.00 0.00 64 1006.6
20260505011058 76 180 5.0 10.0 0.00 0.00 0.00 64 1006.8
20260505010553 76 174 10.0 13.0 0.00 0.00 0.00 64 1006.6
20260505010050 76 174 11.0 13.0 0.00 0.00 0.00 64 1006.9
20260505005546 76 127 5.0 9.0 0.00 0.00 0.00 63 1006.7
20260505005044 76 200 6.0 8.0 0.00 0.00 0.00 63 1006.6
20260505004541 76 156 2.0 9.0 0.00 0.00 0.00 63 1006.8
20260505004037 76 197 8.0 11.0 0.00 0.00 0.00 62 1006.8
20260505003535 77 179 3.0 13.0 0.00 0.00 0.00 62 1006.7
20260505003032 77 195 11.0 17.0 0.00 0.00 0.00 61 1006.7
20260505002532 77 181 7.0 18.0 0.00 0.00 0.00 61 1006.7
20260505002031 77 172 6.0 8.0 0.00 0.00 0.00 61 1006.9
20260505001528 77 75 3.0 12.0 0.00 0.00 0.00 61 1006.9
20260505001025 77 192 6.0 16.0 0.00 0.00 0.00 61 1006.9
20260505000523 78 182 7.0 11.0 0.00 0.00 0.00 60 1007.0
20260505000020 78 184 6.0 16.0 0.00 0.00 0.00 59 1006.9
20260504235517 79 199 8.0 11.0 0.00 0.00 0.00 59 1006.9
20260504235014 79 180 6.0 11.0 0.00 0.00 0.00 59 1007.0
20260504234511 79 161 2.0 12.0 0.00 0.00 0.00 59 1006.9
20260504234008 79 188 7.0 10.0 0.00 0.00 0.00 59 1007.1
20260504233503 78 181 8.0 14.0 0.00 0.00 0.00 59 1007.1
20260504233000 78 185 7.0 17.0 0.00 0.00 0.00 59 1007.1
20260504232457 78 235 4.0 13.0 0.00 0.00 0.00 58 1007.2
20260504231955 79 166 11.0 18.0 0.00 0.00 0.00 58 1007.1
20260504231450 79 166 12.0 15.0 0.00 0.00 0.00 58 1007.1
20260504230946 79 80 3.0 11.0 0.00 0.00 0.00 58 1007.3
20260504230443 79 209 11.0 13.0 0.00 0.00 0.00 58 1007.4
20260504225942 80 192 4.0 11.0 0.00 0.00 0.00 57 1007.5
20260504225438 81 200 13.0 15.0 0.00 0.00 0.00 55 1007.2
20260504224936 80 183 4.0 19.0 0.00 0.00 0.00 56 1007.3
20260504224432 81 203 13.0 20.0 0.00 0.00 0.00 55 1007.5
20260504223930 80 198 10.0 19.0 0.00 0.00 0.00 55 1007.5
20260504223425 80 186 9.0 11.0 0.00 0.00 0.00 56 1007.6
20260504222921 80 170 11.0 17.0 0.00 0.00 0.00 55 1007.7
20260504222419 81 163 9.0 18.0 0.00 0.00 0.00 55 1007.5
20260504221917 81 181 9.0 15.0 0.00 0.00 0.00 55 1007.5
20260504221413 81 184 5.0 13.0 0.00 0.00 0.00 54 1007.5
20260504220910 81 180 8.0 16.0 0.00 0.00 0.00 55 1007.5
20260504220407 82 166 5.0 17.0 0.00 0.00 0.00 55 1007.7
20260504215904 81 186 3.0 15.0 0.00 0.00 0.00 54 1007.6
20260504215400 81 187 8.0 13.0 0.00 0.00 0.00 54 1007.7
20260504214857 81 166 11.0 18.0 0.00 0.00 0.00 55 1007.8
20260504214354 81 177 6.0 9.0 0.00 0.00 0.00 55 1008.1
20260504213850 81 193 6.0 10.0 0.00 0.00 0.00 55 1007.9
20260504213346 80 158 4.0 17.0 0.00 0.00 0.00 55 1008.1
20260504212844 80 165 10.0 20.0 0.00 0.00 0.00 54 1008.4
20260504212339 81 193 8.0 17.0 0.00 0.00 0.00 54 1008.5
20260504211838 81 187 5.0 12.0 0.00 0.00 0.00 55 1008.3
20260504211333 80 148 4.0 11.0 0.00 0.00 0.00 57 1008.4
20260504210831 80 173 12.0 16.0 0.00 0.00 0.00 55 1008.7
20260504210328 80 198 6.0 16.0 0.00 0.00 0.00 55 1008.7
20260504205825 80 201 6.0 14.0 0.00 0.00 0.00 54 1008.7
20260504205323 80 221 5.0 11.0 0.00 0.00 0.00 54 1008.9
20260504204821 80 186 8.0 14.0 0.00 0.00 0.00 54 1009.0
20260504204319 80 191 8.0 11.0 0.00 0.00 0.00 55 1009.1
20260504203818 80 181 11.0 14.0 0.00 0.00 0.00 54 1009.2
20260504203315 80 195 8.0 15.0 0.00 0.00 0.00 54 1009.2
20260504202811 81 176 7.0 13.0 0.00 0.00 0.00 54 1009.5
20260504202308 80 195 13.0 17.0 0.00 0.00 0.00 53 1009.5
20260504201804 81 194 6.0 13.0 0.00 0.00 0.00 53 1009.5
20260504201302 80 228 6.0 13.0 0.00 0.00 0.00 54 1009.5
20260504200759 80 162 6.0 20.0 0.00 0.00 0.00 53 1009.8
20260504200255 80 175 7.0 15.0 0.00 0.00 0.00 52 1009.9
20260504195751 80 177 7.0 15.0 0.00 0.00 0.00 53 1010.0
20260504195247 79 191 11.0 15.0 0.00 0.00 0.00 54 1010.0
20260504194745 80 186 6.0 14.0 0.00 0.00 0.00 52 1010.0
20260504194241 80 161 4.0 13.0 0.00 0.00 0.00 54 1010.2
20260504193737 80 227 3.0 11.0 0.00 0.00 0.00 54 1010.2
20260504193235 79 123 4.0 12.0 0.00 0.00 0.00 54 1010.2
20260504192733 79 166 15.0 20.0 0.00 0.00 0.00 53 1010.3
20260504192231 79 170 7.0 19.0 0.00 0.00 0.00 53 1010.2
20260504191729 78 144 3.0 16.0 0.00 0.00 0.00 56 1010.3
20260504191226 78 184 6.0 13.0 0.00 0.00 0.00 54 1010.6
20260504190721 79 190 3.0 18.0 0.00 0.00 0.00 53 1010.7
20260504190218 79 198 9.0 13.0 0.00 0.00 0.00 54 1010.8
20260504185714 78 175 8.0 15.0 0.00 0.00 0.00 54 1010.7
20260504185211 78 183 10.0 19.0 0.00 0.00 0.00 53 1011.0
20260504184707 78 211 4.0 13.0 0.00 0.00 0.00 54 1011.2
20260504184203 78 203 11.0 20.0 0.00 0.00 0.00 54 1011.1
20260504183700 78 180 18.0 20.0 0.00 0.00 0.00 53 1010.9
20260504183156 78 188 2.0 14.0 0.00 0.00 0.00 56 1011.3
20260504182654 78 193 8.0 16.0 0.00 0.00 0.00 54 1011.3
20260504182151 78 153 12.0 17.0 0.00 0.00 0.00 54 1011.0
20260504181649 77 210 7.0 13.0 0.00 0.00 0.00 55 1011.3
20260504181147 77 173 6.0 12.0 0.00 0.00 0.00 55 1011.5
20260504180645 76 148 5.0 12.0 0.00 0.00 0.00 57 1011.6
20260504180143 76 43 4.0 17.0 0.00 0.00 0.00 56 1011.8
20260504175640 77 233 7.0 12.0 0.00 0.00 0.00 55 1011.9
20260504175137 77 174 9.0 17.0 0.00 0.00 0.00 54 1011.8
20260504174635 77 202 8.0 13.0 0.00 0.00 0.00 54 1011.8
20260504174131 76 184 5.0 13.0 0.00 0.00 0.00 56 1011.9
20260504173629 76 183 6.0 12.0 0.00 0.00 0.00 56 1012.0
20260504173126 76 215 5.0 17.0 0.00 0.00 0.00 55 1012.2
20260504172622 76 157 6.0 17.0 0.00 0.00 0.00 55 1012.1
20260504172119 76 208 12.0 16.0 0.00 0.00 0.00 55 1012.2
20260504171615 76 181 6.0 9.0 0.00 0.00 0.00 57 1012.1
20260504171113 75 197 5.0 15.0 0.00 0.00 0.00 57 1012.4
20260504170608 75 201 10.0 11.0 0.00 0.00 0.00 57 1012.2
20260504170106 75 183 9.0 18.0 0.00 0.00 0.00 56 1012.7
20260504150952 70 179 5.0 16.0 0.00 0.00 0.00 63 1013.7
20260504150449 71 183 10.0 17.0 0.00 0.00 0.00 62 1013.9
20260504140915 68 213 10.0 13.0 0.00 0.00 0.00 67 1013.8
20260504140411 67 175 3.0 9.0 0.00 0.00 0.00 68 1013.7
20260504130337 64 169 6.0 11.0 0.00 0.00 0.00 70 1014.0
20260504120300 62 222 4.0 8.0 0.00 0.00 0.00 70 1013.9
20260504110224 62 148 3.0 5.0 0.00 0.00 0.00 72 1013.6
20260504100148 63 201 7.0 13.0 0.00 0.00 0.00 67 1013.8
20260504090110 64 234 5.0 13.0 0.00 0.00 0.00 61 1014.1
20260504081540 64 187 5.0 6.0 0.00 0.00 0.00 58 1014.5
20260504081036 65 226 1.0 9.0 0.00 0.00 0.00 58 1014.6
20260504080533 65 174 7.0 8.0 0.00 0.00 0.00 58 1014.4
20260504050346 67 200 1.0 4.0 0.00 0.00 0.00 52 1016.6